Location: Unspecified
(0.0000°N, 0.0000°E)
Time: 09:48:20
(UTC+02:00)

Delta 168 - Visible Passes

Search period start: 01 August 2014 00:00
Search period end: 11 August 2014 00:00
Orbit: 395 x 2119 km, 25.3° (Epoch: 31 July)

Date Brightness Start Highest point End Pass type
(mag) Time Alt. Az. Time Alt. Az. Time Alt. Az.
03 Aug 6.8 21:56:40 10° NNW 21:57:47 10° N 21:58:51 10° N visible
04 Aug 6.8 21:53:12 10° NNW 21:55:42 11° N 21:58:00 10° N visible
05 Aug 6.7 21:49:57 10° NNW 21:53:37 12° N 21:56:52 10° NNE visible
06 Aug 6.6 21:46:45 10° NNW 21:51:31 14° N 21:55:36 10° NNE visible
06 Aug 6.8 23:46:43 10° NNW 23:47:41 12° NNW 23:47:41 12° NNW visible
07 Aug 6.5 21:43:33 10° NNW 21:49:23 16° N 21:54:15 10° NE visible
07 Aug 6.7 23:43:26 10° NW 23:45:18 15° NNW 23:45:18 15° NNW visible
08 Aug 6.4 21:40:21 10° NNW 21:47:13 18° N 21:52:19 11° NE visible
08 Aug 6.6 23:40:13 10° NW 23:42:54 18° NNW 23:42:54 18° NNW visible
09 Aug 6.3 21:37:09 10° NW 21:45:01 21° N 21:49:55 14° NE visible
09 Aug 6.5 23:37:04 10° NW 23:40:30 21° NW 23:40:30 21° NW visible
10 Aug 6.2 21:33:57 10° NW 21:42:45 25° NNE 21:47:31 17° NE visible
10 Aug 6.3 23:33:57 10° NW 23:38:06 25° NW 23:38:06 25° NW visible
